Location: Libas
(9.8833°N, 125.9833°E)
Time: 21:29:00
(UTC+00:00)

H-II Stage 2 - Pass Details

Date: 27 October 2020
Orbit: 290 x 26240 km, 25.4° (Epoch: 25 November)

Event Time Altitude Azimuth Distance (km) Brightness Sun altitude
Rises 18:45:47 0° 246° (WSW) 14,675 9.6 -39.5°
Enters shadow 18:55:29 - 247° (WSW) 11,896 9.1 -37.2°
Exits shadow 19:24:39 67° 6° (N) 1,080 4.1 -30.1°
Drops below altitude 10° 19:27:51 10° 56° (ENE) 1,884 6.1 -29.3°
Sets 19:29:07 0° 60° (ENE) 2,467 6.8 -29.0°
